This demonstration page uses our WeatherBlox Daily Observations layout. Learn more.

Left ArrowRight Arrow

41.12389, -100.76542

Hourly Observations for March 21, 2018

Temp ( °F °C ) Dew Point ( °F °C ) Humidity (%) Winds ( mph kmh ) Pressure ( in mb ) Visibility ( mi km ) Precip ( " mm )
12:53 am 00:53 Clear 23 -5 20 -6.7 88 88 Calm 30.12 1020 10 16 0.00 0.00
1:53 am 01:53 Clear 24 -4.4 21 -6.1 88 88 Calm 30.11 1020 10 16 0.00 0.00
2:53 am 02:53 Clear 23 -5 21 -6.1 92 92 NNW 3 6 30.10 1019 10 16 0.00 0.00
3:53 am 03:53 Clear 22 -5.6 19 -7.2 89 89 Calm 30.11 1020 10 16 0.00 0.00
4:53 am 04:53 Clear 22 -5.6 19 -7.2 89 89 WNW 3 6 30.10 1019 10 16 0.00 0.00
5:53 am 05:53 Clear 21 -6.1 17 -8.3 85 85 Calm 30.13 1020 10 16 0.00 0.00
6:53 am 06:53 Clear 22 -5.6 19 -7.2 89 89 Calm 30.13 1020 9 14 0.00 0.00
7:15 am 07:15 Mostly Clear 24 -4.4 20 -6.7 84 84 Calm 30.27 1025 7 11 0.00 0.00
7:19 am 07:19 Mostly Clear with Mist and Fog 24 -4.4 21 -6.1 88 88 Calm 30.27 1025 2 2 0.00 0.00
7:21 am 07:21 Mostly Cloudy with Mist and Fog 23 -5 21 -6.1 92 92 Calm 30.27 1025 1 1 0.00 0.00
7:44 am 07:44 Sunny with Mist and Fog 22 -5.6 19 -7.2 89 89 Calm 30.27 1025 1 2 0.00 0.00
7:47 am 07:47 Sunny with Mist and Fog 21 -6 19 -7 93 93 S 3 6 30.27 1025 2 3 0.00 0.00
7:53 am 07:53 Sunny with Mist and Fog 21 -6.1 19 -7.2 92 92 Calm 30.15 1021 4 6 0.00 0.00
8:53 am 08:53 Sunny 28 -2.2 26 -3.3 92 92 ESE 3 6 30.14 1021 10 16 0.00 0.00
9:53 am 09:53 Sunny 35 1.7 31 -0.6 85 85 E 7 11 30.14 1021 10 16 0.00 0.00
10:53 am 10:53 Sunny 45 7.2 34 1.1 66 66 SE 6 9 30.11 1020 10 16 0.00 0.00
11:53 am 11:53 Sunny 54 12.2 30 -1.1 40 40 SSW 12 19 30.09 1019 10 16 0.00 0.00
12:53 pm 12:53 Sunny 57 13.9 28 -2.2 33 33 SW 14 22 30.07 1018 10 16 0.00 0.00
1:53 pm 13:53 Partly Cloudy 59 15 30 -1.1 33 33 SW 14 22 30.05 1018 10 16 0.00 0.00
2:53 pm 14:53 Cloudy 58 14.4 29 -1.7 33 33 W 12 19 30.05 1018 10 16 0.00 0.00
3:53 pm 15:53 Cloudy 63 17.2 27 -2.8 26 26 SW 12 19 30.03 1017 10 16 0.00 0.00
4:53 pm 16:53 Mostly Cloudy 63 17.2 26 -3.3 25 25 SW 7 11 30.01 1016 10 16 0.00 0.00
5:53 pm 17:53 Partly Cloudy 64 17.8 23 -5 21 21 SW 7 11 29.99 1016 10 16 0.00 0.00
6:53 pm 18:53 Mostly Cloudy 63 17.2 27 -2.8 26 26 SW 7 11 29.99 1016 10 16 0.00 0.00
7:53 pm 19:53 Partly Cloudy 52 11.1 27 -2.8 38 38 ENE 3 6 30.02 1017 10 16 0.00 0.00
8:53 pm 20:53 Cloudy 51 10.6 29 -1.7 43 43 E 5 7 30.02 1017 10 16 0.00 0.00
9:53 pm 21:53 Mostly Clear 44 6.7 28 -2.2 53 53 ENE 6 9 30.03 1017 10 16 0.00 0.00
10:53 pm 22:53 Partly Cloudy 46 7.8 30 -1.1 54 54 E 3 6 30.02 1017 10 16 0.00 0.00
11:53 pm 23:53 Cloudy 47 8.3 30 -1.1 52 52 E 5 7 30.01 1016 10 16 0.00 0.00

Powered by AerisWeather